Regional Weather Roundup
Issued by NWS Sterling, VA

Home | Current Version | Previous Version | Text Only | Print | Product List | Glossary Off
Versions: 1 2 3 4 5 6 7 8 9 10 11 12 13 14 15 16 17 18 19 20 21 22 23 24 25 26 27

000
ASUS41 KLWX 190510
RWRLWX

REGIONAL WEATHER ROUNDUP
NATIONAL WEATHER SERVICE BALTIMORE MD/WASHINGTON DC
1200 AM EST SUN FEB 19 2017

Note: "FAIR" indicates few or no clouds below 12,000 feet
with no significant weather and/or obstructions to visibility.
 TC=TEMPERATURE CELSIUS

 * =Non NWS site. Station does not report precipitation (e.g. rain,
    snow, etc.), thunder, or fog.

DCZ001-MDZ009-015-VAZ040>042-051-053>054-190600-
WASHINGTON METRO

CITY           SKY/WX    TMP DP  RH WIND       PRES   REMARKS
WASHINGTON NAT CLOUDY    55  37  50 S9        29.80R
DULLES         CLOUDY    53  34  48 CALM      29.80R
ANDREWS AFB    CLOUDY    60  31  33 SW7       29.78R
FT BELVOIR     CLOUDY    52  35  52 N3        29.78S
QUANTICO       CLOUDY    53  39  59 S7        29.80S
COLLEGE PARK*  CLOUDY    50  36  57 CALM      29.78R
LEESBURG*      CLOUDY    55  36  47 CALM      29.80R
MANASSAS*      MOCLDY    52  38  58 CALM      29.79S
GAITHERSBURG*  CLOUDY    52  30  43 W6        29.83R

$$

MDZ006>007-011-014-190600-
BALTIMORE METRO

CITY           SKY/WX    TMP DP  RH WIND       PRES   REMARKS
BWI AIRPORT    CLOUDY    57  33  40 NW6       29.75F
MD SCIENCE CTR   N/A     61  30  31 MISG      29.77S
ANNAPOLIS      CLOUDY    54  38  54 W5        29.76F
FORT MEADE*    MOCLDY    48  34  57 CALM      29.80R

$$

MDZ012-015-019>023-190600-
MARYLAND EASTERN SHORE

CITY           SKY/WX    TMP DP  RH WIND       PRES   REMARKS
OCEAN CITY     CLOUDY    56  38  50 SW12      29.78S
SALISBURY      CLOUDY    60  37  42 SW10      29.78S
BAY BRIDGE AP* MOCLDY    54  36  50 NW3       29.77S
CAMBRIDGE*     CLOUDY    54  36  50 CALM      29.77R
EASTON*        CLOUDY    53  38  57 SW3       29.81S

$$

MDZ017>025-190600-
SOUTHERN MARYLAND

CITY           SKY/WX    TMP DP  RH WIND       PRES   REMARKS
PATUXENT RIVER CLOUDY    58  37  45 S3        29.78S
ST INIGOES     NOT AVBL
LEONARDTOWN*   CLOUDY    61  32  33 SW5       29.79F

$$

MDZ003>005-190600-
NORTH CENTRAL MARYLAND

CITY           SKY/WX    TMP DP  RH WIND       PRES   REMARKS
FREDERICK*     CLOUDY    57  36  44 S3        29.80F
HAGERSTOWN APT PTCLDY    62  33  33 W8        29.79R
WESTMINSTER*   PTCLDY    61  34  36 W12       29.78S

$$

MDZ501>502-190600-
WESTERN MARYLAND

CITY           SKY/WX    TMP DP  RH WIND       PRES   REMARKS
OAKLAND*       CLOUDY    45  34  65 W9G17     29.87R
CUMBERLAND*    CLOUDY    59  41  51 S3        29.85S

$$

VAZ025>031-190600-
SHENANDOAH VALLEY

CITY           SKY/WX    TMP DP  RH WIND       PRES   REMARKS
WINCHESTER*    CLOUDY    59  34  38 SW5       29.80R
FRONT ROYAL*   CLOUDY    61  32  33 SW6       29.80R
LURAY*         MOCLDY    55  37  50 CALM      29.81F
NEW MARKET*    CLOUDY    51  38  60 CALM      29.80F
STAUNTON*      CLOUDY    51  35  55 CALM      29.85R
WAYNESBORO*    CLOUDY    55  37  50 SW7       29.84R

$$

WVZ021-048>050-054>055-190600-
EASTERN WEST VIRGINIA PANHANDLE

CITY           SKY/WX    TMP DP  RH WIND       PRES   REMARKS
MARTINSBURG    CLOUDY    61  35  37 W10       29.78F
PETERSBURG*    LGT RAIN  62  44  50 S7        29.83S

$$

VAZ036>039-050-190600-
CENTRAL FOOTHILLS

CITY           SKY/WX    TMP DP  RH WIND       PRES   REMARKS
CHARLOTTESVILL CLOUDY    64  30  27 SW5       29.79F
CULPEPER*      CLOUDY    56  37  47 CALM      29.81R
ORANGE*        DRIZZLE   59  34  38 CALM      29.79F
GORDONSVILLE*  CLOUDY    56  39  53 SW3       29.77F
WARRENTON*     CLOUDY    55  32  41 CALM      29.79S

$$

VAZ055>057-190600-
NORTH AND CENTRAL PIEDMONT

CITY           SKY/WX    TMP DP  RH WIND       PRES   REMARKS
FREDERICKSBRG* CLOUDY    57  37  46 CALM      29.78S
STAFFORD*      CLOUDY    56  36  47 CALM      29.84R

$$

NCZ024-NYZ072-PAZ021-071-VAZ022-071-190600-
OTHER REGIONAL OBSERVATIONS

CITY           SKY/WX    TMP DP  RH WIND       PRES   REMARKS
NEW YORK CITY  MOCLDY    59  32  36 MISG      29.69R
PHILADELPHIA   CLOUDY    53  36  52 SW10      29.75R
PITTSBURGH     MOCLDY    51  42  71 SW9       29.83R
ROANOKE        PTCLDY    55  34  45 W3        29.87S
RICHMOND       CLOUDY    59  36  42 SW9       29.83R
RALEIGH        CLOUDY    57  44  62 SW10      29.92S

$$

ANZ530>537-190600-
MARINE OBSERVATIONS

STATION/POSITION TIME  TEMP    WIND        PRES
                       AIR SEA DIR/SP/G
                 (UTC) (F)     (DEG/KT/KT) (MB)
THOMAS PT LIGHT  0500   61 39  240/  8/  9   N/A
BALT KEY BRIDGE  0442   60     260/  4/  5 1007.8F
COVE POINT       0442   63     300/ 10/ 13 1008.3F
LEWISETTA        0442   61 43  240/  6/  7 1008.1F
SOLOMONS ISLAND  0442   59 42  210/  8/  9   N/A
PINEY POINT      0448          350/  2/  3   N/A

$$





USA.gov is the U.S. government's official web portal to all federal, state and local government web resources and services.